Home   Weather   Unalaska   Past weeks

Flag for USA Past Weather in Unalaska, Alaska, USA — Yesterday and Last 2 Weeks

Now
30 °F

Overcast.


Feels Like: 21 °F
Forecast: 27 / 33 °F
Wind: 12 mph from West

Location: Dutch Harbor

Current Time: Dec 10, 2016 at 1:41:20 pm

Latest Report: Dec 10, 2016 at 12:59 pm


Visibility: 10 mi

Pressure: 30.20 "Hg

Humidity: 75%

Dew Point: 23 °F

Location of UnalaskaLocation

Past Weather in Unalaska — Graph

°F

Unalaska Temperature Yesterday

Maximum temperature yesterday: 35 °F (at 9:56 pm)
Minimum temperature yesterday: 31 °F (at 9:56 am)
Average temperature yesterday: 33 °F

High & Low Weather Summary for the Past Weeks

 TemperatureHumidityPressure
High48 °F (Nov 25, 11:56 pm)93% (Nov 25, 2:00 pm)30.49 "Hg (Nov 25, 2:00 pm)
Low28 °F (Dec 1, 9:01 am)50% (Dec 2, 10:56 am)28.73 "Hg (Nov 26, 3:56 am)
Average37 °F74%29.89 "Hg
* Reported Nov 25 11:56 am — Dec 10 11:56 am, Unalaska, Weather by CustomWeather, © 2016

Note: Actual official high and low records may vary slightly from our data, if they occured in-between our weather recording intervals... More about our weather records

Advertising

Unalaska Weather History for the Previous 24 Hours

Scroll right to see more
 ConditionsComfort  
Time TempWeatherWind HumidityBarometerVisibility
11:56 am
Sat, Dec 10
31 °FOvercast.12 mph76%30.21 "Hg10 mi
10:57 am30 °FOvercast.12 mph80%30.21 "Hg10 mi
9:56 am32 °FOvercast.6 mph69%30.21 "Hg10 mi
8:58 am30 °FOvercast.6 mph75%30.20 "Hg10 mi
7:56 am31 °FOvercast.9 mph69%30.21 "Hg10 mi
6:56 am31 °FOvercast.6 mph73%30.21 "Hg10 mi
5:56 am31 °FOvercast.N/A69%30.21 "Hg10 mi
4:56 am33 °FOvercast.N/A66%30.22 "Hg10 mi
3:56 am33 °FOvercast.N/A63%30.22 "Hg10 mi
2:56 am34 °FOvercast.N/A64%30.23 "Hg10 mi
1:56 am34 °FOvercast.N/A64%30.23 "Hg10 mi
12:56 am34 °FOvercast.N/A64%30.24 "Hg10 mi
11:56 pm
Fri, Dec 9
35 °FOvercast.N/A67%30.24 "Hg10 mi
10:56 pm35 °FLight rain. Mostly cloudy.N/A75%30.24 "Hg10 mi
9:56 pm35 °FLight rain. Mostly cloudy.N/A75%30.23 "Hg6 mi
8:56 pm34 °FMostly cloudy.N/A82%30.21 "Hg10 mi
7:56 pm34 °FMostly cloudy.N/A82%30.21 "Hg10 mi
6:56 pm33 °FMostly cloudy.12 mph78%30.22 "Hg10 mi
5:56 pm32 °FLight snow. Ice fog.14 mph82%30.23 "Hg6 mi
4:56 pm32 °FMore clouds than sun.9 mph73%30.21 "Hg10 mi
3:56 pm32 °FOvercast.17 mph69%30.20 "Hg10 mi
2:56 pm32 °FMore clouds than sun.9 mph66%30.21 "Hg10 mi
1:56 pm32 °FMore clouds than sun.12 mph66%30.20 "Hg10 mi
Weather by CustomWeather, © 2016

See weather overviewHow to use our weather pages